Wind_Speed
8 7 6 6 5 5 4 3 4 5 6 6 6 7 7 7 8 9 9 9 9 9 8 8 8 8 9 9 10 11 11 11 11 10 9 9 8 7 6 7 8 8 9 9 10 11 11 12 13 13 14 15 17 17 17 17 17 18 18 20 21 22 22 22 22 21 20 19 18 18 17 15 14 14
9 8 7 6 6 5 5 4 3 2 2 3 4 5 5 6 6 7 8 8 8 8 8 8 8 8 9 9 10 11 11 12 12 12 11 10 10 9 8 8 8 9 9 9 10 11 12 13 13 14 15 16 17 18 18 17 18 18 19 21 22 22 23 22 21 21 20 20 19 19 18 17 15 13
10 9 9 8 7 6 6 5 5 4 3 1 1 2 2 3 3 4 5 6 7 8 8 8 8 8 9 10 11 12 12 13 12 12 12 12 11 11 10 10 10 10 10 10 10 11 12 13 14 15 16 17 17 17 17 18 18 19 20 21 22 22 22 21 21 21 21 21 21 20 19 18 16 14
13 11 11 10 9 9 8 7 7 6 6 5 3 1 1 1 1 2 3 4 5 6 6 7 8 8 9 10 11 12 12 13 13 13 13 13 13 12 12 12 12 11 11 11 11 12 13 14 15 16 16 17 17 17 17 18 19 20 21 21 21 21 21 21 21 22 22 21 21 20 20 20 18 16
14 14 13 12 12 12 11 10 9 9 8 8 6 5 4 4 4 4 3 4 4 4 4 5 6 7 8 10 11 12 12 13 13 13 14 14 13 13 13 14 13 13 13 13 13 13 14 15 16 16 17 17 17 17 18 18 19 19 20 21 21 20 20 21 21 22 22 22 21 21 21 20 19 17
14 15 16 15 15 15 13 13 12 11 10 10 9 8 8 7 7 7 7 6 6 6 6 5 5 5 7 9 11 12 13 13 14 14 14 14 14 14 14 15 15 15 14 14 15 15 16 16 16 17 17 18 18 18 18 18 18 19 20 20 20 20 20 20 21 22 22 22 22 21 21 21 20 19
13 15 16 16 17 18 16 15 14 14 13 13 11 11 11 10 11 11 11 10 9 9 9 8 7 7 7 8 10 11 13 14 14 15 15 15 15 15 16 16 16 16 16 15 16 17 17 17 17 17 17 18 19 19 19 19 19 19 19 19 19 19 19 20 21 22 22 22 22 21 21 21 20 20
10 12 13 15 18 19 19 18 17 17 16 15 14 13 13 13 13 14 14 14 13 13 12 11 11 11 9 9 10 11 13 14 15 15 16 17 17 16 17 17 17 17 16 16 17 17 18 18 18 18 18 18 19 19 20 19 19 19 19 18 18 18 19 20 21 21 22 21 21 21 20 20 20 20
10 10 11 12 16 19 20 20 19 19 18 18 17 16 15 15 16 17 17 17 17 17 16 15 15 15 13 11 12 12 13 15 15 15 16 17 18 18 18 18 19 19 18 17 18 18 18 19 19 19 19 18 18 19 20 20 19 19 18 18 17 18 18 19 20 21 21 20 20 20 20 20 19 19
11 11 10 11 14 17 18 19 19 20 21 21 20 19 19 18 19 20 20 20 20 19 19 18 19 18 17 16 15 14 15 15 16 16 16 18 19 19 19 20 20 20 20 19 19 19 19 19 20 20 19 18 18 19 19 19 19 19 18 17 17 17 18 18 19 20 20 19 19 20 20 19 19 18
14 13 12 12 14 15 15 16 17 19 21 23 23 22 22 22 23 24 24 24 24 23 22 22 21 21 21 20 19 18 18 17 16 16 18 19 19 20 21 21 21 21 22 21 20 20 19 19 20 20 20 19 18 19 18 18 18 18 18 17 16 17 17 18 18 19 19 18 18 18 19 19 18 17
16 16 15 15 15 15 15 15 15 17 19 21 23 24 25 25 26 26 27 28 28 28 27 26 24 24 24 24 22 22 21 20 17 17 20 21 21 21 22 23 23 22 22 22 22 21 20 20 20 20 20 19 19 19 18 17 17 18 17 17 16 16 17 17 18 18 18 17 16 16 17 18 18 18
18 18 18 18 17 17 17 16 17 17 18 20 21 22 24 26 28 28 30 30 30 30 31 30 28 28 28 26 25 25 24 22 21 21 23 24 23 24 25 24 23 23 23 24 23 22 21 21 20 19 19 19 20 19 18 17 17 17 17 17 16 16 16 17 17 18 17 16 15 15 16 17 17 18
20 20 20 20 20 20 20 20 20 20 20 21 21 21 22 25 27 29 31 32 32 32 33 32 31 32 31 28 27 27 25 25 25 26 26 26 25 27 28 26 24 24 25 25 25 23 22 22 21 19 18 18 19 18 18 17 17 17 17 17 17 17 16 17 17 17 17 16 15 15 15 16 17 17
19 20 21 21 21 21 21 21 21 22 22 22 22 22 23 24 25 28 30 31 32 33 34 33 33 34 33 30 30 29 28 27 28 28 28 29 29 30 31 28 26 26 26 28 27 25 23 23 22 19 17 18 18 17 17 18 18 17 17 17 17 17 16 17 17 17 17 17 16 15 15 16 16 17
16 17 18 19 20 20 20 20 21 21 21 22 23 24 25 26 26 28 29 30 32 33 34 35 35 36 34 32 32 31 30 30 30 31 31 32 32 33 33 32 29 27 28 31 30 26 24 25 24 21 18 18 17 17 17 18 19 19 18 18 17 17 17 17 17 17 17 17 17 16 16 16 16 17
16 16 17 18 18 18 19 19 19 19 19 20 21 23 25 27 28 28 29 30 31 32 34 35 36 35 35 34 33 32 32 33 34 35 35 34 35 36 36 35 33 31 32 34 33 29 26 26 26 23 20 19 19 17 17 18 19 19 19 18 17 17 18 18 18 17 17 17 17 17 17 17 17 17
18 18 19 20 19 19 20 20 20 20 20 20 21 23 24 26 27 28 29 30 31 32 33 35 35 34 34 35 34 33 34 37 37 38 38 37 38 39 39 38 37 36 36 36 36 33 28 26 27 26 23 22 21 19 17 17 18 19 20 18 18 19 19 18 18 17 17 17 18 18 17 17 18 18
22 22 22 23 22 21 21 21 22 22 22 23 24 25 26 27 27 28 28 29 30 31 33 34 34 33 33 34 34 33 36 38 38 39 40 41 42 43 42 41 40 39 37 37 38 36 31 28 30 29 26 26 25 22 19 18 17 19 20 19 19 20 20 19 18 18 18 18 18 18 18 18 18 18
24 24 24 24 24 24 24 24 24 24 25 26 27 28 29 29 29 30 30 30 30 30 31 33 33 32 32 34 35 35 36 38 38 39 42 44 45 46 45 44 42 40 39 39 39 38 34 32 32 30 29 28 27 25 22 19 18 18 19 20 20 20 21 20 19 18 18 18 18 18 18 18 18 18
25 25 25 25 26 26 26 26 27 28 28 29 29 30 30 31 32 32 32 32 32 31 31 32 32 33 33 34 36 36 37 38 38 40 44 46 47 47 48 47 45 42 41 41 40 40 38 35 33 32 32 31 30 28 26 22 19 19 19 20 21 21 23 22 20 19 18 18 18 18 18 19 19 19
26 26 26 26 27 27 27 28 29 30 31 32 32 32 33 33 33 33 34 34 33 33 34 34 34 35 35 35 37 37 39 40 40 43 46 46 46 48 50 49 46 44 43 42 41 42 41 37 34 34 35 34 32 30 28 25 22 20 19 20 21 22 24 23 21 20 19 18 19 18 18 19 20 19
28 28 27 27 27 28 29 30 31 32 34 34 34 35 36 35 33 33 36 37 35 35 37 37 38 38 38 38 39 40 41 43 44 46 48 47 48 50 51 49 48 47 46 42 41 42 41 37 35 35 36 36 34 31 29 27 25 21 20 20 21 22 24 24 22 21 19 18 19 18 18 19 20 20
30 29 29 29 29 29 31 32 34 35 36 36 37 37 38 38 36 36 38 39 38 39 39 40 41 41 40 41 42 43 44 46 47 48 49 50 51 52 52 51 51 50 47 43 41 40 39 38 37 36 37 37 35 33 30 29 27 23 21 21 21 21 24 25 24 22 20 19 19 18 19 19 20 21
32 32 32 32 32 33 34 34 35 36 37 38 39 40 40 40 39 40 42 42 41 41 41 42 43 43 43 44 45 46 47 49 50 51 52 52 53 54 54 53 52 51 48 44 42 40 39 39 38 37 38 39 37 35 32 31 29 26 23 22 22 21 23 25 26 24 22 20 19 18 19 19 20 21
35 35 35 35 35 36 36 36 37 37 38 38 39 39 40 41 42 43 44 43 42 42 43 44 45 45 45 46 47 47 48 48 49 52 54 54 54 55 53 51 52 52 50 46 43 41 41 41 39 38 39 40 38 37 34 32 31 29 25 23 22 21 22 25 28 27 23 20 19 19 19 20 20 21
37 38 37 37 38 38 38 38 38 38 38 38 39 39 40 42 43 44 45 43 41 41 43 45 46 46 46 47 48 48 50 51 50 52 55 55 55 56 53 50 49 49 49 48 47 45 43 42 40 41 42 41 40 39 37 34 34 31 27 25 24 23 21 24 28 29 25 21 20 19 19 20 20 22
39 39 39 39 39 39 39 38 38 37 37 37 38 38 38 40 41 43 45 44 40 40 42 44 45 45 45 46 48 49 52 54 53 54 57 57 56 56 56 54 50 46 47 50 51 50 48 45 42 42 43 43 43 41 38 36 35 33 28 27 26 24 22 23 28 30 26 23 21 20 19 20 21 22
41 40 39 39 39 38 37 36 35 34 34 34 35 35 36 37 39 42 45 46 44 43 43 44 46 48 47 47 48 50 53 55 55 57 60 61 60 58 57 56 52 48 48 51 53 52 51 48 44 44 45 46 45 42 39 37 37 35 31 29 27 25 24 24 27 29 28 25 23 21 20 21 22 22
41 41 40 40 39 37 35 34 33 32 32 32 33 34 36 38 40 42 45 48 48 48 46 46 49 50 49 49 51 52 53 55 57 59 60 61 62 60 58 58 55 52 52 53 53 53 54 51 48 47 48 48 47 44 40 39 40 38 33 31 30 27 25 24 26 28 28 26 24 22 21 21 22 22
41 41 40 38 36 34 32 32 31 31 32 33 34 36 37 40 41 43 45 47 50 52 52 53 55 55 53 53 54 54 54 56 59 61 61 61 61 60 59 60 60 57 56 56 55 56 57 55 50 49 51 51 48 45 42 41 42 41 36 32 32 30 27 25 25 27 29 28 25 24 22 22 22 23
40 39 37 34 32 31 31 31 31 32 33 34 36 37 39 40 42 43 45 48 51 54 55 57 59 59 59 58 56 55 56 58 59 60 61 62 62 60 59 61 62 60 59 59 57 57 59 57 53 52 53 52 49 46 45 43 43 42 38 34 33 31 28 26 24 26 29 30 27 25 23 22 23 23
35 34 32 30 30 30 31 32 32 33 35 36 37 38 39 41 43 45 47 49 52 54 56 57 59 60 61 61 59 57 58 58 57 56 57 59 60 60 62 63 63 62 61 60 58 58 60 59 57 54 52 51 50 49 48 46 45 43 39 36 35 31 28 26 25 26 30 31 28 26 24 23 23 24
30 29 28 28 29 31 32 33 34 35 36 38 38 39 41 42 45 47 49 51 53 55 57 58 60 61 61 62 61 61 61 61 59 57 57 58 59 61 62 63 63 62 62 62 61 60 61 60 59 56 52 51 52 53 51 49 47 45 42 38 36 32 29 28 28 27 30 31 29 26 25 24 24 25
27 27 28 29 30 32 33 34 35 36 38 39 40 42 43 45 47 49 51 53 54 56 58 59 60 61 62 62 63 64 65 65 65 63 60 60 61 63 64 64 62 60 60 61 61 61 60 61 62 60 56 52 52 54 56 53 49 47 45 41 36 33 31 29 27 27 29 32 30 27 25 25 25 25
27 28 29 31 32 33 34 35 36 38 39 41 43 45 46 47 49 51 52 53 54 55 57 59 60 62 62 63 65 66 68 69 69 68 66 65 64 64 65 66 64 61 59 59 60 61 60 60 62 63 61 58 55 55 58 57 53 50 47 41 36 34 33 29 27 27 30 31 29 26 25 25 26 25
29 30 31 32 33 33 35 36 37 39 41 43 44 47 48 50 51 52 53 54 54 55 56 59 61 62 64 65 67 69 70 71 70 69 68 67 66 65 66 67 66 63 61 60 60 61 62 61 61 63 63 62 58 56 57 59 55 51 46 40 35 34 33 29 28 27 29 30 28 26 26 26 26 26
30 31 32 32 33 35 36 37 39 40 42 44 45 47 49 51 51 52 53 54 55 56 58 60 62 64 65 66 67 69 70 69 68 68 68 66 65 66 66 68 67 64 61 57 57 60 62 61 61 62 63 65 64 58 57 60 57 50 46 42 37 33 32 30 28 27 28 29 27 26 26 27 26 26
30 31 32 33 34 35 37 38 40 42 43 45 46 48 49 50 51 52 53 54 56 58 59 62 64 65 65 65 66 66 66 64 64 66 66 67 67 66 66 67 66 62 59 56 55 58 60 60 62 63 63 66 66 59 54 55 53 47 46 46 40 34 31 30 27 27 28 29 27 26 27 27 26 26
30 31 32 33 34 36 37 39 41 43 44 45 46 47 49 50 51 52 53 54 56 58 59 62 63 63 63 64 64 64 63 61 61 62 64 64 64 63 62 62 60 58 57 57 57 61 64 63 63 62 61 63 65 61 55 51 48 47 48 47 41 35 32 29 26 28 29 28 27 27 27 27 27 26
30 31 32 33 35 36 38 39 42 43 44 45 46 47 48 49 50 51 52 53 55 56 57 58 60 60 60 61 62 61 60 59 59 60 61 60 58 56 54 53 53 54 56 57 60 65 65 62 62 62 61 62 66 65 60 55 53 53 50 44 38 34 31 28 27 29 29 27 27 27 27 27 27 26
31 31 32 33 35 37 38 41 43 44 45 46 47 47 48 49 49 50 50 51 52 52 53 53 53 52 52 52 51 51 52 53 55 56 56 53 50 47 46 46 49 53 55 57 61 62 61 61 64 62 58 63 71 71 64 59 57 53 45 38 35 32 29 28 29 30 28 27 27 27 27 27 26 24
31 31 32 34 36 38 40 42 44 45 45 46 46 46 46 47 47 47 48 48 48 48 49 49 47 45 42 42 43 43 44 45 47 49 50 49 45 42 40 42 46 49 53 60 65 66 65 67 67 62 59 66 74 70 60 55 52 46 38 35 33 31 28 29 30 29 27 27 27 27 27 26 24 23
31 32 33 35 37 39 41 43 44 44 44 43 43 43 44 44 45 45 46 45 45 45 46 45 44 42 40 40 42 43 42 40 40 41 43 44 42 39 37 39 41 43 49 57 64 69 71 72 71 68 67 68 66 58 50 46 43 38 35 33 33 31 29 29 29 28 27 26 26 26 26 24 22 22
33 34 35 37 39 41 42 42 41 40 39 39 40 40 40 41 42 43 43 43 43 44 44 44 44 43 41 41 41 42 42 40 37 37 38 41 40 37 36 37 37 37 41 48 56 63 70 75 76 71 62 55 49 44 41 37 34 32 32 33 32 29 28 28 28 27 26 26 25 25 25 23 22 22
Wind_Direction
202 202 200 196 188 177 169 152 125 107 95 90 82 70 58 50 49 52 57 61 59 54 47 44 45 42 39 34 32 35 37 35 30 26 21 15 6 353 335 321 316 316 317 318 321 323 326 327 328 331 334 337 337 336 334 333 334 335 335 333 330 329 330 330 329 328 326 324 324 322 320 318 315 311
211 210 212 212 208 197 192 191 176 159 129 102 87 76 67 54 44 40 40 46 51 48 40 33 28 23 22 21 18 20 24 24 22 20 18 15 10 1 348 334 323 319 317 318 321 325 327 327 327 329 330 331 332 332 332 332 333 334 333 331 331 332 332 331 329 327 326 326 325 325 324 322 320 317
227 220 218 218 221 219 213 207 206 220 233 204 105 76 73 59 47 39 29 31 38 39 34 27 20 12 9 11 9 8 10 12 11 8 7 6 4 359 351 341 332 326 320 318 321 324 326 326 325 325 326 326 326 328 330 331 332 332 331 330 332 334 333 330 327 326 325 324 325 326 326 324 323 322
232 231 229 227 227 230 228 223 217 219 230 234 230 241 268 319 343 4 7 11 19 26 26 20 13 6 1 0 0 358 358 360 0 358 357 357 355 351 347 342 336 330 324 321 320 321 322 323 322 321 323 324 324 325 327 330 330 330 330 331 333 333 331 328 325 324 322 322 324 326 326 324 323 324
230 233 235 235 236 237 235 235 233 225 225 231 233 240 251 266 280 289 303 317 330 346 2 7 2 357 353 350 350 349 347 347 349 349 348 347 346 342 339 337 336 332 327 323 321 320 321 321 320 320 321 323 323 323 325 328 329 329 330 331 332 331 328 325 323 321 320 321 323 326 326 324 323 325
228 231 234 237 240 243 240 238 241 239 234 233 233 237 245 255 266 274 281 287 296 306 311 319 330 336 339 340 339 338 338 337 337 338 338 338 337 334 332 331 331 330 326 323 321 320 320 320 320 320 321 322 323 323 325 327 328 328 329 331 331 328 325 323 322 320 320 321 324 326 326 325 323 324
233 232 233 235 239 245 245 242 243 245 244 242 239 240 243 249 257 265 270 273 277 285 290 297 305 308 314 322 323 325 327 328 329 330 329 329 328 327 326 325 326 325 324 322 319 318 317 318 319 319 320 322 322 322 324 325 326 327 328 329 328 325 323 321 321 320 320 322 324 325 326 325 323 323
242 241 238 236 238 243 247 247 247 247 247 248 247 247 248 250 255 260 264 268 271 273 277 284 290 291 294 301 305 310 315 317 320 324 322 320 320 320 320 320 320 320 320 319 317 316 316 316 317 318 318 320 320 321 322 324 324 324 326 327 325 322 320 320 320 320 320 322 323 324 325 324 322 322
248 248 245 242 242 244 246 248 251 253 253 253 253 252 253 255 258 261 264 268 271 272 275 279 281 282 284 287 290 296 302 305 309 314 315 314 314 315 315 315 316 316 317 316 315 315 316 316 316 316 317 318 318 319 321 322 322 321 323 324 321 319 317 318 320 320 320 322 323 324 324 322 321 320
259 255 250 248 249 251 252 251 252 255 257 258 257 256 257 259 261 263 265 267 269 271 274 276 277 278 281 281 282 285 288 291 296 304 308 307 308 311 312 311 311 313 315 315 313 313 314 314 314 314 315 316 315 317 320 320 319 318 319 319 317 315 315 318 320 319 319 320 321 322 321 321 320 320
269 267 261 256 256 259 262 261 259 258 259 261 261 261 260 260 261 263 265 266 268 270 272 273 274 277 279 279 279 281 281 282 288 298 302 300 302 307 308 308 308 309 311 312 311 312 312 311 311 311 312 314 314 315 317 317 314 313 313 314 312 311 313 317 318 318 317 318 318 319 319 319 320 321
271 273 272 269 267 267 267 269 268 266 264 263 263 263 263 262 262 263 265 266 267 270 271 272 272 274 275 277 279 281 281 282 289 296 294 293 298 302 303 303 305 306 307 307 308 309 309 309 309 309 310 312 312 312 313 311 308 306 306 306 307 309 311 315 317 316 315 315 316 317 317 317 319 321
269 272 274 275 276 275 274 272 270 269 268 266 266 266 266 265 265 264 265 265 266 268 270 272 273 272 273 275 278 280 282 286 291 290 287 290 295 295 294 298 303 304 303 303 303 305 306 306 306 306 307 307 308 309 309 305 301 298 298 300 303 307 310 314 316 315 313 313 315 316 315 316 317 319
267 269 272 274 276 276 275 273 271 270 269 269 270 270 269 268 268 268 267 267 268 268 269 271 272 272 272 273 275 278 282 285 285 285 286 290 291 288 288 293 299 300 300 299 299 299 300 302 303 303 302 301 302 306 305 299 295 292 293 296 301 304 309 311 313 312 311 311 314 315 314 314 314 316
268 269 270 272 273 274 274 274 274 273 271 270 270 270 270 270 270 270 270 270 270 270 271 272 272 272 273 274 273 275 277 280 281 282 284 285 284 284 286 290 293 294 294 293 294 296 296 297 299 298 296 295 296 299 300 297 292 290 289 292 296 300 304 306 307 309 309 310 313 314 313 312 312 314
272 273 273 274 274 277 279 278 277 277 276 275 274 273 272 271 271 271 271 271 272 272 273 273 273 274 276 276 275 275 276 277 278 279 279 280 281 282 284 287 289 290 288 286 290 296 295 292 293 292 289 288 288 290 293 293 291 288 284 284 289 295 298 299 302 305 307 309 311 313 312 311 311 312
275 277 278 278 279 281 282 281 281 282 281 281 279 277 275 274 273 274 274 274 273 273 274 274 275 277 278 278 278 278 277 275 274 274 275 277 279 281 282 284 286 284 281 282 288 294 294 291 289 288 284 281 282 283 283 287 290 288 283 282 285 289 291 293 298 302 306 307 309 311 311 310 309 310
279 280 280 280 281 282 282 282 283 283 284 283 281 278 276 275 275 275 274 274 275 275 276 276 277 279 280 279 280 279 276 273 273 273 274 274 275 276 277 278 279 278 279 282 286 288 291 289 287 287 283 277 277 279 277 280 288 289 284 282 282 283 285 289 293 299 303 305 307 309 308 306 306 308
281 281 280 281 281 281 281 281 282 283 283 282 280 278 278 278 278 277 275 275 276 277 277 277 278 278 279 279 279 277 274 273 273 273 273 273 272 271 272 273 274 276 279 281 282 286 289 286 284 287 284 275 274 277 275 277 286 290 286 281 278 278 281 286 290 294 299 302 304 306 306 304 304 306
279 278 278 280 281 282 282 282 283 283 282 281 279 279 279 280 280 279 278 277 277 277 278 280 281 280 278 277 276 274 273 273 273 273 272 271 269 269 270 271 272 274 277 279 281 284 285 282 281 284 282 276 274 275 274 274 283 290 288 282 277 276 279 283 286 290 295 299 301 303 303 302 302 304
279 279 279 280 280 281 282 283 284 283 283 282 281 281 282 281 280 280 279 278 277 278 279 280 280 278 277 275 274 274 273 273 273 272 270 270 271 271 271 271 272 273 275 277 278 280 280 280 280 280 279 275 273 273 272 271 277 287 289 283 278 275 276 280 283 286 290 295 297 299 300 300 301 302
280 281 282 282 282 283 284 285 285 284 284 284 285 285 285 283 283 283 282 280 279 279 277 275 273 273 273 273 273 273 272 271 270 269 268 269 271 271 270 271 272 271 271 271 273 275 278 280 281 278 276 275 273 272 268 264 269 281 286 281 275 272 273 276 279 282 286 290 292 294 297 298 298 300
280 281 282 283 283 285 287 288 289 289 288 288 288 288 287 287 288 288 285 283 281 277 274 272 270 269 268 268 269 269 268 268 267 266 267 268 268 267 268 270 270 269 268 269 271 274 277 278 278 275 274 274 273 270 264 260 264 274 280 276 270 269 271 274 275 278 281 283 287 290 293 294 296 297
282 283 284 285 287 288 289 290 291 291 291 292 292 291 291 293 294 291 286 283 281 279 277 276 275 272 270 267 266 265 266 267 266 266 266 266 266 267 267 268 268 268 269 270 270 272 274 275 273 271 270 272 272 269 262 257 259 266 272 271 267 268 272 273 272 274 276 278 283 287 289 290 293 294
284 286 288 290 291 291 291 290 291 291 292 293 293 293 294 295 295 291 286 284 283 282 281 279 277 276 274 271 268 267 266 265 266 267 267 267 267 267 267 267 268 269 270 271 271 272 273 273 271 270 269 270 270 268 263 257 256 261 266 265 262 267 273 273 270 270 272 275 279 283 285 287 290 291
286 288 289 291 292 292 292 292 292 292 292 293 293 293 294 293 292 289 286 284 283 282 281 282 282 280 279 278 278 277 276 275 274 273 273 273 272 272 272 273 273 273 273 272 270 270 270 269 268 267 266 267 267 266 263 257 253 256 260 260 259 264 271 273 271 269 270 272 275 278 281 284 287 288
286 288 290 291 291 292 292 293 293 292 292 292 292 293 293 292 291 289 286 284 283 283 283 284 284 284 284 284 285 286 288 288 288 286 283 281 281 281 281 280 279 278 277 274 270 266 264 265 265 264 264 264 264 263 262 257 251 251 256 257 257 260 267 272 270 268 268 269 271 274 278 281 283 285
284 285 287 289 289 290 290 290 290 290 290 290 290 291 292 292 292 290 287 284 283 282 283 284 284 284 286 286 287 288 289 290 291 291 290 288 287 286 285 284 282 280 276 274 272 269 264 262 262 262 262 262 262 262 261 256 249 247 250 253 254 257 262 267 268 265 265 266 268 270 274 276 279 282
282 284 286 287 288 288 288 287 286 285 285 285 286 287 289 289 289 289 288 286 285 285 286 288 288 287 287 286 286 287 286 287 288 289 290 290 290 289 288 287 286 281 275 273 273 272 268 262 259 259 260 259 259 260 259 253 246 243 244 248 250 253 257 262 265 263 262 264 266 267 269 271 274 278
284 286 288 289 289 288 286 285 284 283 283 283 284 285 286 286 287 288 289 289 289 289 290 289 285 284 284 285 285 285 286 286 287 287 288 289 288 288 289 289 287 282 277 274 273 272 271 267 260 256 256 257 257 257 256 252 246 241 240 244 246 248 253 259 261 260 261 262 263 262 263 266 270 273
285 286 286 286 285 283 282 282 282 282 282 282 282 283 284 285 286 287 288 289 288 289 290 288 284 283 284 284 283 284 284 284 285 286 286 285 285 287 288 286 285 283 280 277 275 274 274 272 264 256 253 254 255 255 254 251 245 239 237 240 244 246 250 253 255 257 260 260 259 259 260 262 266 270
281 281 281 280 279 279 279 279 280 280 281 282 283 283 284 285 286 288 288 289 288 288 288 288 287 287 287 286 284 283 282 281 281 282 282 282 283 284 284 282 281 282 281 279 277 276 275 272 268 262 255 251 252 253 252 250 245 238 234 237 242 245 247 249 250 255 258 258 257 258 258 260 263 267
276 276 276 276 277 279 280 282 283 283 284 284 285 285 286 288 290 291 291 291 291 289 288 289 289 289 289 289 289 288 285 283 283 282 282 282 282 281 280 278 278 279 279 279 279 278 276 273 270 265 257 250 249 249 247 246 243 236 231 233 239 241 242 243 245 250 254 255 256 256 256 258 262 264
272 274 276 278 280 282 283 285 286 286 287 287 288 289 290 291 293 294 293 293 293 292 291 291 291 291 292 292 293 292 291 290 289 287 285 284 283 281 279 277 277 277 278 279 278 277 277 276 273 266 254 247 246 248 245 242 239 233 228 229 234 235 235 238 243 247 250 252 252 253 254 257 259 262
272 275 278 280 282 283 285 285 287 288 289 290 292 293 294 294 294 295 294 294 293 292 292 292 292 293 294 294 294 294 293 293 293 292 290 288 285 283 282 281 280 279 277 277 277 275 274 274 273 268 258 248 244 245 243 239 234 229 225 226 230 232 231 237 247 250 247 248 249 250 253 256 257 260
275 277 279 281 282 284 285 287 289 291 293 294 295 296 296 296 295 295 294 294 293 292 293 293 293 293 294 294 294 294 294 294 294 293 291 289 286 284 284 282 281 280 277 275 274 272 271 270 269 268 263 253 244 243 243 240 233 228 225 225 229 231 230 237 251 252 245 245 248 249 251 254 256 258
276 278 280 282 283 285 287 290 293 295 296 296 297 297 297 296 296 295 295 295 295 295 295 294 294 295 295 296 296 295 295 295 294 293 291 289 286 284 283 281 280 279 277 274 271 268 267 267 266 266 265 257 247 243 243 241 234 227 222 221 226 229 229 238 253 252 243 243 246 247 249 253 254 257
277 279 281 283 286 289 291 293 295 296 296 297 297 297 297 297 298 298 298 298 298 298 297 296 296 296 296 296 295 295 295 295 293 291 288 286 284 282 280 279 278 277 276 276 272 268 266 266 265 265 265 259 252 246 242 238 232 225 219 218 223 228 233 243 253 249 240 240 244 245 247 251 253 256
277 279 282 285 288 291 293 295 296 297 298 299 299 300 299 299 299 299 299 299 299 298 298 298 298 298 298 297 296 295 294 293 292 289 287 284 281 280 280 280 280 280 279 278 274 269 267 265 264 264 264 263 260 253 244 238 231 223 219 220 221 228 239 248 250 242 236 238 241 242 245 249 251 255
278 281 285 288 290 293 295 297 299 299 300 300 299 299 299 299 299 299 299 299 299 300 301 301 302 303 303 302 300 300 298 295 293 290 288 285 282 280 278 277 278 277 276 275 273 270 267 265 265 265 266 267 264 255 244 237 227 217 216 217 217 225 240 247 242 235 235 237 239 240 244 247 249 253
281 284 288 291 294 296 298 299 299 299 298 298 298 298 298 299 299 299 299 300 302 303 305 306 307 307 306 305 304 303 302 299 295 291 288 285 283 279 275 273 274 275 274 272 270 269 268 268 268 266 265 265 260 249 237 227 218 212 213 213 213 223 238 239 231 230 234 235 237 239 242 245 247 251
284 287 291 293 295 297 298 298 298 297 297 297 298 298 299 298 298 299 301 303 306 307 307 308 309 310 311 312 310 305 301 298 295 291 287 284 282 279 274 270 269 270 271 270 269 268 270 271 269 265 261 260 255 245 230 217 212 212 212 210 212 224 233 230 226 229 231 232 234 237 240 243 247 251
285 288 291 293 294 296 297 297 297 296 297 297 298 298 298 298 300 303 305 307 308 308 307 309 310 312 318 325 326 321 313 307 302 297 291 286 283 281 277 272 267 266 268 269 267 265 265 265 264 262 260 254 245 234 219 208 207 210 209 209 215 224 225 222 224 228 229 229 232 235 238 242 247 251
286 289 291 293 295 296 296 296 295 295 296 296 297 297 299 303 306 308 308 309 309 308 310 312 315 317 323 331 336 336 333 326 318 309 298 288 283 281 279 278 273 266 264 263 260 257 256 255 252 251 248 240 228 214 203 200 202 204 205 210 217 221 218 220 226 229 229 230 232 234 238 242 245 249
288 291 293 294 294 294 293 292 293 294 296 297 299 302 305 308 310 310 309 310 311 312 315 318 322 325 330 334 338 341 344 342 335 323 305 290 284 282 280 278 274 267 263 262 258 251 246 242 237 233 228 219 206 196 193 194 196 200 206 211 214 214 216 223 228 229 227 229 230 232 236 239 243 249
Height
3238 3239 3239 3240 3240 3240 3240 3240 3240 3240 3240 3240 3240 3240 3240 3239 3238 3237 3237 3237 3236 3236 3235 3235 3235 3234 3234 3233 3233 3232 3231 3230 3229 3228 3227 3226 3225 3225 3224 3224 3223 3222 3221 3220 3219 3218 3217 3217 3216 3215 3214 3213 3212 3211 3209 3208 3206 3205 3203 3202 3200 3199 3197 3195 3194 3192 3190 3189 3187 3186 3184 3183 3182 3181
3237 3238 3238 3239 3239 3240 3240 3240 3240 3240 3240 3240 3240 3240 3239 3239 3238 3237 3237 3237 3236 3236 3235 3235 3234 3234 3233 3233 3232 3231 3230 3230 3229 3228 3226 3225 3225 3224 3223 3223 3222 3221 3220 3219 3218 3217 3216 3215 3215 3214 3213 3212 3211 3209 3208 3206 3205 3203 3202 3200 3198 3197 3195 3193 3192 3190 3189 3187 3185 3184 3183 3181 3180 3179
3236 3237 3237 3238 3238 3239 3239 3239 3239 3239 3240 3240 3240 3239 3239 3238 3238 3237 3237 3236 3236 3236 3235 3235 3234 3234 3233 3232 3231 3230 3230 3229 3228 3227 3226 3224 3224 3223 3223 3222 3221 3220 3219 3218 3217 3216 3215 3214 3213 3213 3211 3210 3209 3208 3206 3205 3203 3202 3200 3198 3196 3195 3193 3192 3190 3189 3187 3185 3184 3182 3181 3179 3178 3177
3234 3235 3236 3236 3237 3238 3238 3238 3239 3239 3239 3239 3239 3239 3238 3238 3237 3237 3236 3236 3235 3235 3235 3234 3234 3233 3232 3232 3231 3230 3229 3228 3227 3226 3225 3224 3223 3222 3222 3221 3220 3219 3218 3217 3216 3215 3214 3213 3212 3211 3210 3209 3207 3206 3205 3203 3201 3200 3198 3196 3195 3193 3192 3190 3189 3187 3185 3184 3182 3181 3179 3178 3176 3175
3232 3233 3234 3235 3235 3236 3237 3237 3238 3238 3238 3238 3238 3238 3237 3237 3236 3236 3236 3235 3235 3234 3234 3234 3233 3233 3232 3231 3230 3230 3229 3228 3227 3226 3224 3223 3222 3221 3221 3220 3219 3218 3217 3216 3215 3213 3212 3211 3211 3210 3209 3207 3206 3204 3203 3201 3200 3198 3196 3195 3193 3192 3190 3189 3187 3185 3184 3182 3181 3179 3177 3176 3175 3174
3231 3231 3232 3233 3233 3234 3235 3235 3236 3236 3237 3237 3237 3237 3236 3236 3235 3235 3235 3234 3234 3233 3233 3233 3232 3232 3231 3231 3230 3229 3228 3227 3226 3225 3224 3222 3221 3221 3220 3219 3218 3217 3216 3215 3213 3212 3211 3210 3209 3208 3207 3206 3204 3203 3201 3199 3198 3196 3195 3193 3192 3190 3189 3187 3186 3184 3182 3181 3179 3177 3176 3174 3173 3172
3229 3229 3230 3231 3231 3231 3232 3233 3234 3234 3235 3235 3235 3236 3235 3235 3234 3234 3233 3233 3233 3232 3232 3232 3231 3231 3230 3230 3229 3228 3227 3226 3225 3224 3223 3221 3221 3220 3219 3218 3217 3216 3214 3213 3212 3211 3210 3208 3207 3206 3205 3204 3202 3201 3199 3198 3196 3194 3193 3191 3190 3189 3187 3186 3184 3182 3181 3179 3178 3176 3174 3173 3171 3170
3227 3227 3228 3229 3229 3229 3229 3230 3231 3232 3232 3233 3233 3234 3234 3233 3233 3232 3232 3232 3232 3231 3231 3231 3230 3230 3229 3229 3228 3227 3226 3225 3224 3223 3221 3220 3220 3219 3218 3217 3216 3214 3213 3212 3211 3210 3208 3207 3205 3204 3203 3202 3200 3199 3197 3195 3194 3192 3191 3190 3189 3187 3186 3184 3183 3181 3179 3178 3176 3174 3173 3171 3170 3168
3225 3226 3226 3227 3227 3227 3227 3228 3228 3229 3230 3230 3231 3231 3231 3231 3231 3231 3230 3230 3230 3229 3229 3229 3229 3228 3227 3227 3226 3225 3224 3223 3222 3221 3220 3219 3218 3218 3217 3216 3214 3213 3212 3211 3209 3208 3207 3205 3204 3202 3201 3200 3198 3197 3195 3193 3192 3190 3189 3188 3187 3186 3184 3183 3181 3180 3178 3176 3175 3173 3171 3169 3168 3167
3223 3223 3224 3225 3225 3224 3225 3226 3226 3226 3227 3227 3228 3228 3229 3229 3229 3228 3228 3228 3228 3227 3227 3227 3226 3225 3225 3225 3224 3224 3223 3222 3220 3220 3219 3218 3217 3216 3215 3214 3213 3211 3210 3209 3208 3206 3205 3204 3202 3200 3199 3198 3197 3195 3193 3191 3190 3188 3187 3186 3185 3184 3183 3181 3180 3178 3177 3175 3173 3171 3169 3168 3167 3165
3221 3221 3222 3223 3223 3223 3223 3224 3224 3225 3224 3224 3224 3225 3225 3226 3225 3225 3225 3225 3225 3224 3224 3224 3223 3223 3222 3221 3221 3221 3220 3220 3219 3218 3217 3216 3215 3214 3213 3212 3211 3210 3208 3207 3206 3204 3203 3202 3201 3199 3197 3196 3195 3193 3191 3190 3188 3186 3185 3184 3183 3182 3181 3180 3178 3177 3175 3174 3172 3170 3168 3167 3165 3164
3219 3219 3220 3220 3221 3221 3221 3222 3222 3222 3222 3222 3221 3221 3222 3222 3222 3222 3221 3221 3221 3220 3220 3220 3220 3220 3219 3218 3218 3218 3217 3217 3217 3217 3215 3213 3213 3212 3210 3209 3209 3208 3207 3205 3204 3202 3201 3200 3199 3197 3196 3194 3193 3191 3190 3188 3186 3184 3183 3182 3181 3180 3179 3178 3177 3176 3174 3172 3171 3169 3167 3166 3164 3162
3217 3217 3217 3218 3218 3219 3219 3220 3220 3220 3220 3219 3219 3219 3219 3218 3218 3218 3217 3217 3217 3216 3216 3216 3216 3216 3215 3215 3215 3215 3214 3214 3215 3214 3212 3211 3211 3209 3208 3207 3206 3205 3204 3203 3201 3200 3199 3197 3196 3195 3194 3192 3191 3189 3188 3186 3184 3182 3181 3180 3179 3178 3177 3176 3175 3174 3173 3171 3169 3168 3166 3164 3163 3161
3215 3215 3215 3216 3216 3216 3216 3217 3217 3217 3217 3216 3216 3216 3216 3215 3215 3214 3214 3213 3213 3213 3212 3212 3212 3211 3211 3212 3212 3211 3211 3211 3211 3210 3209 3209 3208 3206 3204 3204 3204 3202 3201 3199 3198 3198 3196 3195 3193 3192 3191 3190 3188 3187 3186 3184 3182 3180 3179 3177 3176 3175 3175 3174 3173 3172 3171 3169 3168 3166 3165 3163 3161 3159
3212 3213 3213 3213 3213 3213 3213 3213 3213 3213 3213 3213 3213 3213 3213 3212 3211 3211 3210 3209 3209 3209 3208 3208 3208 3206 3207 3208 3209 3208 3208 3207 3206 3206 3205 3205 3204 3202 3201 3201 3201 3199 3197 3195 3195 3195 3193 3192 3191 3190 3189 3187 3186 3184 3183 3181 3179 3178 3176 3175 3174 3173 3172 3172 3171 3170 3169 3167 3166 3164 3163 3161 3159 3157
3210 3210 3210 3210 3210 3210 3210 3210 3210 3210 3210 3210 3209 3209 3209 3208 3208 3207 3206 3206 3205 3205 3204 3204 3203 3202 3203 3204 3204 3204 3204 3204 3202 3202 3201 3200 3199 3198 3197 3196 3197 3197 3194 3191 3190 3191 3191 3189 3188 3187 3186 3185 3183 3182 3180 3179 3177 3176 3174 3173 3171 3170 3170 3169 3168 3168 3166 3165 3163 3162 3161 3160 3158 3156
3207 3207 3208 3207 3208 3208 3207 3207 3207 3206 3206 3206 3206 3205 3205 3204 3203 3203 3203 3202 3201 3201 3200 3199 3198 3199 3199 3199 3200 3200 3200 3199 3197 3197 3196 3195 3194 3193 3193 3192 3193 3192 3190 3187 3186 3187 3187 3186 3184 3184 3183 3182 3181 3180 3178 3177 3175 3173 3172 3170 3168 3167 3167 3166 3166 3165 3164 3163 3161 3160 3159 3158 3156 3154
3205 3205 3205 3204 3205 3205 3204 3204 3203 3203 3203 3203 3202 3201 3200 3199 3199 3199 3198 3197 3197 3197 3195 3194 3194 3195 3195 3194 3195 3196 3194 3193 3192 3191 3191 3191 3189 3188 3187 3187 3187 3186 3185 3184 3182 3182 3184 3183 3181 3181 3180 3178 3177 3177 3176 3174 3173 3171 3169 3167 3166 3165 3164 3164 3163 3162 3161 3160 3159 3158 3157 3155 3154 3152
3201 3201 3201 3201 3201 3201 3201 3200 3200 3200 3200 3199 3198 3196 3195 3195 3195 3194 3193 3193 3193 3192 3191 3190 3190 3191 3190 3189 3190 3190 3188 3186 3186 3186 3185 3184 3183 3181 3181 3180 3180 3180 3181 3180 3178 3177 3180 3179 3177 3177 3177 3174 3174 3174 3172 3171 3170 3168 3166 3164 3163 3163 3162 3161 3160 3159 3158 3158 3157 3155 3154 3153 3152 3151
3197 3197 3197 3197 3197 3197 3197 3196 3196 3196 3195 3194 3193 3192 3191 3191 3190 3188 3188 3188 3188 3188 3187 3186 3185 3186 3186 3184 3184 3184 3182 3181 3181 3180 3178 3176 3175 3174 3174 3174 3175 3176 3176 3176 3174 3173 3175 3175 3173 3172 3172 3170 3169 3169 3168 3167 3166 3164 3163 3162 3161 3160 3159 3158 3156 3156 3155 3155 3154 3153 3152 3151 3150 3149
3192 3193 3193 3193 3193 3193 3192 3192 3192 3192 3191 3190 3188 3187 3187 3186 3184 3183 3184 3184 3183 3183 3183 3182 3181 3180 3180 3179 3178 3178 3177 3176 3176 3174 3170 3168 3168 3167 3166 3166 3168 3170 3171 3171 3170 3168 3169 3170 3169 3168 3167 3165 3165 3165 3164 3163 3162 3161 3160 3159 3158 3158 3156 3155 3153 3152 3152 3152 3151 3150 3149 3149 3148 3146
3188 3188 3189 3189 3188 3188 3188 3188 3188 3187 3186 3185 3184 3183 3182 3180 3179 3179 3178 3178 3179 3178 3177 3176 3175 3174 3174 3173 3172 3172 3170 3170 3169 3166 3163 3163 3162 3160 3158 3159 3162 3163 3163 3164 3164 3163 3163 3165 3165 3163 3161 3160 3160 3160 3159 3159 3158 3157 3157 3156 3155 3155 3153 3152 3150 3149 3149 3148 3148 3147 3147 3146 3145 3144
3184 3184 3185 3185 3185 3184 3184 3183 3183 3182 3181 3179 3179 3178 3176 3175 3174 3174 3173 3172 3173 3172 3170 3169 3168 3168 3168 3167 3166 3165 3163 3162 3160 3158 3156 3156 3154 3152 3152 3153 3154 3154 3155 3158 3159 3157 3157 3159 3159 3158 3156 3155 3156 3156 3155 3154 3154 3154 3153 3152 3151 3151 3150 3149 3147 3146 3145 3145 3145 3144 3144 3143 3143 3142
3179 3180 3180 3181 3181 3181 3180 3179 3178 3177 3175 3174 3173 3172 3170 3169 3169 3169 3167 3165 3165 3165 3164 3163 3162 3161 3161 3161 3159 3158 3156 3154 3152 3151 3150 3148 3146 3145 3145 3145 3145 3145 3148 3152 3153 3152 3152 3153 3152 3152 3151 3150 3150 3151 3150 3150 3150 3150 3149 3148 3147 3147 3146 3145 3144 3142 3142 3141 3141 3141 3140 3140 3140 3139
3175 3176 3176 3176 3176 3176 3176 3175 3174 3172 3171 3169 3168 3166 3164 3163 3163 3162 3159 3157 3158 3158 3157 3156 3155 3154 3154 3153 3152 3151 3150 3148 3146 3144 3142 3141 3139 3138 3137 3138 3138 3139 3142 3145 3147 3147 3147 3146 3146 3146 3146 3144 3144 3145 3145 3145 3145 3145 3145 3144 3143 3142 3142 3142 3141 3139 3138 3138 3137 3137 3137 3137 3136 3136
3171 3171 3171 3171 3171 3170 3170 3169 3168 3167 3166 3164 3163 3161 3159 3157 3156 3154 3151 3150 3151 3150 3150 3149 3148 3148 3148 3146 3145 3144 3143 3141 3140 3138 3136 3135 3133 3132 3133 3135 3135 3135 3138 3140 3141 3141 3140 3140 3140 3140 3139 3138 3139 3139 3139 3139 3139 3140 3140 3139 3139 3138 3137 3138 3138 3136 3134 3134 3133 3133 3133 3133 3133 3133
3166 3166 3166 3166 3166 3165 3165 3164 3163 3162 3161 3159 3158 3157 3155 3152 3150 3147 3143 3143 3145 3146 3146 3145 3143 3143 3142 3140 3139 3138 3136 3134 3133 3131 3129 3128 3129 3128 3129 3131 3132 3132 3133 3132 3132 3133 3132 3132 3133 3133 3132 3132 3132 3132 3133 3134 3133 3134 3134 3134 3134 3133 3132 3133 3133 3132 3131 3129 3129 3129 3129 3129 3129 3129
3161 3162 3162 3162 3161 3161 3160 3159 3158 3157 3156 3155 3153 3152 3150 3147 3145 3141 3137 3136 3139 3142 3141 3139 3137 3137 3137 3136 3135 3132 3129 3126 3125 3123 3121 3121 3122 3122 3122 3124 3126 3127 3126 3124 3123 3124 3124 3124 3125 3126 3126 3125 3124 3125 3126 3127 3127 3128 3129 3129 3128 3128 3128 3128 3129 3128 3127 3126 3125 3125 3125 3125 3125 3125
3157 3157 3157 3157 3156 3156 3155 3154 3153 3152 3151 3150 3149 3148 3146 3143 3141 3138 3133 3131 3132 3135 3136 3134 3131 3130 3131 3131 3130 3127 3123 3121 3119 3118 3115 3113 3113 3114 3114 3114 3116 3117 3116 3115 3115 3115 3115 3116 3118 3119 3118 3118 3117 3118 3120 3121 3121 3122 3122 3123 3123 3123 3123 3123 3124 3124 3123 3122 3121 3121 3121 3121 3121 3122
3152 3151 3151 3151 3150 3150 3149 3148 3147 3147 3147 3145 3144 3143 3141 3139 3137 3134 3131 3127 3124 3126 3129 3127 3123 3122 3124 3125 3124 3120 3118 3115 3113 3112 3110 3106 3104 3104 3105 3104 3105 3107 3107 3106 3107 3106 3105 3107 3110 3111 3110 3110 3110 3111 3113 3114 3114 3115 3116 3117 3117 3117 3117 3118 3118 3119 3119 3118 3117 3117 3117 3118 3118 3118
3146 3146 3146 3145 3145 3144 3144 3143 3143 3142 3142 3141 3140 3139 3137 3135 3133 3131 3128 3124 3119 3117 3118 3116 3113 3113 3115 3116 3114 3113 3111 3109 3107 3104 3101 3099 3098 3098 3097 3094 3093 3095 3096 3097 3097 3097 3096 3097 3099 3100 3101 3101 3102 3104 3106 3107 3107 3108 3109 3110 3111 3111 3112 3113 3113 3114 3114 3114 3113 3113 3113 3114 3114 3114
3142 3141 3141 3141 3140 3139 3139 3139 3138 3138 3137 3136 3135 3134 3133 3131 3129 3127 3125 3121 3116 3112 3110 3107 3105 3103 3103 3103 3103 3103 3101 3100 3099 3097 3094 3091 3090 3091 3089 3085 3083 3084 3085 3085 3086 3087 3085 3085 3087 3088 3089 3091 3094 3096 3098 3099 3100 3101 3103 3104 3104 3105 3107 3108 3108 3109 3109 3109 3108 3108 3108 3109 3110 3110
3137 3137 3136 3136 3135 3134 3134 3134 3134 3133 3132 3131 3131 3130 3128 3126 3125 3122 3119 3116 3113 3108 3104 3101 3098 3096 3094 3092 3092 3093 3091 3088 3089 3090 3087 3083 3082 3081 3079 3075 3074 3075 3074 3074 3076 3076 3075 3075 3076 3077 3079 3082 3085 3087 3089 3090 3092 3095 3096 3097 3098 3100 3101 3102 3103 3103 3104 3104 3104 3104 3104 3104 3105 3106
3132 3132 3132 3132 3131 3130 3130 3129 3129 3128 3127 3126 3125 3124 3123 3121 3119 3116 3113 3110 3107 3102 3098 3095 3091 3088 3086 3084 3082 3081 3079 3077 3077 3078 3077 3075 3073 3071 3067 3065 3064 3065 3064 3064 3065 3066 3065 3066 3068 3068 3070 3073 3075 3077 3080 3081 3084 3087 3089 3090 3092 3094 3095 3096 3096 3097 3098 3099 3099 3099 3099 3100 3101 3101
3128 3128 3128 3127 3127 3126 3125 3124 3123 3123 3121 3120 3119 3117 3116 3115 3112 3109 3107 3104 3100 3096 3092 3089 3085 3082 3079 3076 3074 3071 3068 3066 3065 3065 3065 3064 3061 3058 3056 3053 3053 3055 3055 3055 3055 3055 3056 3057 3058 3058 3061 3064 3066 3068 3070 3072 3075 3079 3082 3083 3086 3088 3089 3090 3090 3091 3092 3093 3094 3094 3095 3096 3097 3097
3124 3124 3124 3123 3122 3122 3121 3120 3119 3117 3116 3114 3112 3110 3109 3107 3106 3103 3100 3097 3093 3090 3086 3082 3078 3075 3072 3068 3065 3062 3059 3056 3054 3052 3052 3051 3049 3048 3045 3042 3041 3043 3044 3044 3045 3045 3045 3047 3048 3049 3051 3054 3055 3056 3060 3064 3068 3071 3075 3078 3081 3083 3084 3084 3084 3085 3086 3088 3089 3090 3091 3092 3092 3093
3120 3119 3119 3118 3118 3117 3116 3115 3113 3112 3110 3108 3106 3104 3101 3099 3098 3096 3093 3089 3086 3083 3079 3075 3070 3067 3064 3060 3056 3052 3049 3046 3043 3041 3039 3038 3037 3036 3033 3030 3030 3032 3032 3034 3035 3034 3034 3037 3038 3038 3041 3044 3046 3047 3051 3056 3060 3063 3067 3072 3075 3077 3078 3078 3078 3080 3082 3083 3085 3085 3086 3087 3088 3088
3116 3115 3114 3114 3113 3111 3110 3109 3107 3106 3104 3102 3100 3098 3095 3093 3090 3088 3085 3081 3078 3075 3071 3067 3063 3060 3057 3053 3049 3044 3040 3037 3033 3029 3026 3026 3025 3023 3020 3019 3018 3019 3021 3023 3024 3023 3022 3024 3025 3027 3029 3032 3035 3038 3042 3046 3050 3055 3059 3064 3069 3071 3072 3072 3073 3075 3078 3079 3080 3081 3082 3083 3083 3083
3111 3111 3110 3109 3108 3106 3104 3103 3101 3099 3097 3095 3093 3091 3088 3086 3083 3081 3078 3074 3071 3067 3063 3059 3055 3052 3048 3044 3040 3035 3031 3027 3022 3017 3014 3013 3011 3010 3009 3007 3007 3008 3011 3013 3013 3013 3012 3013 3014 3015 3017 3020 3025 3031 3033 3037 3044 3050 3053 3057 3061 3065 3067 3068 3069 3071 3073 3074 3076 3077 3078 3079 3079 3079
3107 3106 3106 3104 3103 3101 3099 3097 3095 3093 3091 3089 3087 3085 3082 3079 3077 3074 3071 3068 3064 3060 3056 3051 3047 3042 3038 3033 3029 3024 3020 3016 3012 3008 3004 3001 3000 2999 2999 2999 3000 3001 3002 3002 3002 3001 3001 3002 3005 3006 3009 3014 3020 3024 3029 3035 3040 3041 3043 3049 3055 3060 3062 3063 3065 3066 3068 3070 3071 3072 3074 3075 3075 3075
3102 3101 3100 3099 3097 3095 3093 3091 3089 3088 3086 3084 3081 3079 3076 3074 3070 3067 3064 3061 3057 3053 3049 3044 3040 3035 3030 3025 3019 3014 3009 3004 3001 2997 2993 2990 2989 2989 2990 2992 2993 2993 2992 2992 2992 2990 2990 2995 3000 3001 3004 3008 3011 3014 3021 3026 3027 3028 3034 3043 3050 3054 3056 3058 3060 3062 3063 3065 3066 3068 3070 3071 3071 3072
3097 3096 3095 3093 3091 3089 3088 3086 3084 3082 3080 3078 3075 3073 3070 3067 3065 3062 3058 3055 3052 3048 3043 3039 3035 3030 3024 3018 3012 3006 3000 2995 2991 2987 2983 2981 2979 2980 2982 2983 2983 2984 2983 2983 2981 2981 2984 2990 2993 2995 2999 3000 2999 3002 3010 3013 3016 3023 3033 3040 3045 3048 3051 3053 3055 3057 3058 3060 3062 3064 3066 3067 3068 3068
3092 3091 3090 3088 3086 3084 3082 3080 3078 3076 3074 3072 3070 3067 3064 3061 3058 3055 3052 3049 3046 3042 3039 3035 3031 3025 3019 3012 3006 2999 2993 2987 2983 2979 2976 2973 2973 2974 2975 2974 2975 2976 2977 2975 2973 2974 2978 2981 2984 2990 2993 2991 2991 2996 3003 3006 3012 3023 3031 3035 3039 3043 3046 3048 3050 3052 3053 3056 3058 3060 3062 3063 3064 3064
3087 3086 3084 3082 3080 3079 3077 3075 3073 3071 3069 3067 3064 3061 3058 3055 3052 3049 3046 3043 3040 3037 3033 3029 3024 3019 3014 3008 3002 2996 2989 2982 2977 2973 2970 2968 2967 2968 2968 2967 2967 2968 2970 2969 2968 2969 2971 2974 2977 2981 2982 2984 2988 2995 3000 3005 3013 3022 3027 3031 3035 3039 3041 3043 3046 3048 3050 3052 3054 3056 3057 3059 3060 3060
3082 3080 3079 3077 3075 3074 3072 3070 3068 3066 3064 3061 3058 3056 3053 3050 3047 3044 3041 3038 3035 3031 3027 3022 3017 3012 3008 3003 2998 2993 2987 2980 2974 2969 2966 2964 2963 2963 2962 2961 2960 2962 2964 2964 2964 2964 2964 2965 2968 2972 2978 2985 2991 2995 3000 3007 3015 3020 3023 3027 3032 3035 3038 3041 3043 3045 3047 3049 3051 3052 3054 3055 3055 3056